"Period start","avg(HW err(1)/warn(2) (#))","avg(Visibility (m))","avg(Weather code (#))","avg(Precip intensity (mm/h))","min(HW err(1)/warn(2) (#))","max(HW err(1)/warn(2) (#))","std(HW err(1)/warn(2) (#))","med(HW err(1)/warn(2) (#))","min(Visibility (m))","max(Visibility (m))","std(Visibility (m))","med(Visibility (m))","min(Weather code (#))","max(Weather code (#))","std(Weather code (#))","med(Weather code (#))","min(Precip intensity (mm/h))","max(Precip intensity (mm/h))","std(Precip intensity (mm/h))","med(Precip intensity (mm/h))"
2017-10-03 00:00:00,2,8175,71,0.65,2,2,0,2,6121,11166,1844,7682,71,71,0,71,0.25,1.15,0.30,0.65
2017-10-03 00:10:00,2,6189,71,0.71,2,2,0,2,5456,6992,494,6160,71,71,0,71,0.50,1.00,0.19,0.60
2017-10-03 00:20:00,2,6608,71,0.80,2,2,0,2,4908,8235,1054,6486,71,71,0,71,0.45,1.45,0.30,0.80
2017-10-03 00:30:00,2,10643,71,0.33,2,2,0,2,7970,16170,2515,9892,71,71,0,71,0.05,0.55,0.20,0.42
2017-10-03 00:40:00,2,25442,71,0.04,2,2,0,2,12837,38950,8916,25158,71,71,0,71,0.00,0.10,0.04,0.05
2017-10-03 00:50:00,2,35304,76,0.01,2,2,0,2,13853,45890,10005,38854,71,78,3,78,0.00,0.05,0.02,0.00
2017-10-03 01:00:00,2,43177,28,0.00,2,2,0,2,35928,50000,5101,42833,0,71,35,0,0.00,0.00,0.00,0.00
2017-10-03 01:10:00,2,43779,0,0.00,2,2,0,2,32426,50000,6396,45410,0,0,0,0,0.00,0.00,0.00,0.00
2017-10-03 01:20:00,2,42232,0,0.00,2,2,0,2,23363,50000,9782,48128,0,0,0,0,0.00,0.00,0.00,0.00
2017-10-03 01:30:00,2,45087,0,0.00,2,2,0,2,29164,50000,6645,48446,0,0,0,0,0.00,0.00,0.00,0.00
2017-10-03 01:40:00,2,44794,0,0.00,2,2,0,2,27843,50000,7098,48148,0,0,0,0,0.00,0.00,0.00,0.00
2017-10-03 01:50:00,2,19701,53,0.01,2,2,0,2,13775,28879,4601,19220,0,78,35,74,0.00,0.05,0.02,0.00
2017-10-03 02:00:00,2,23562,78,0.00,2,2,0,2,19040,26618,3013,24904,78,78,0,78,0.00,0.00,0.00,0.00
2017-10-03 02:10:00,2,21038,75,0.02,2,2,0,2,16444,25006,2746,21958,71,78,3,78,0.00,0.10,0.04,0.00
2017-10-03 02:20:00,2,22634,71,0.10,2,2,0,2,16203,31868,5742,20546,71,71,0,71,0.00,0.45,0.13,0.05
2017-10-03 02:30:00,2,39403,71,0.03,2,2,0,2,28331,50000,6763,40106,71,71,0,71,0.00,0.20,0.06,0.00
2017-10-03 02:40:00,2,43521,7,0.00,2,2,0,2,33286,50000,5893,45376,0,71,21,0,0.00,0.00,0.00,0.00
2017-10-03 02:50:00,2,44942,0,0.00,2,2,0,2,33871,50000,5181,45932,0,0,0,0,0.00,0.00,0.00,0.00
2017-10-03 03:00:00,2,30693,57,0.05,2,2,0,2,20127,46361,7912,31014,0,71,28,71,0.00,0.15,0.05,0.05
2017-10-03 03:10:00,2,41814,71,0.08,2,2,0,2,31286,48821,5046,43924,71,71,0,71,0.00,0.30,0.10,0.05
2017-10-03 03:20:00,2,37346,71,0.03,2,2,0,2,27347,50000,7887,37180,71,71,0,71,0.00,0.20,0.06,0.00
2017-10-03 03:30:00,2,43241,73,0.01,2,2,0,2,31390,50000,5566,43686,71,77,3,71,0.00,0.10,0.03,0.00
2017-10-03 03:40:00,2,38454,76,0.02,2,2,0,2,24964,48034,6326,38777,71,78,3,78,0.00,0.20,0.06,0.00
2017-10-03 03:50:00,2,45677,28,0.00,2,2,0,2,25677,50000,7082,48717,0,71,35,0,0.00,0.00,0.00,0.00
2017-10-03 04:00:00,2,42744,0,0.00,2,2,0,2,28476,50000,8471,46902,0,0,0,0,0.00,0.00,0.00,0.00
2017-10-03 04:10:00,2,47660,0,0.00,2,2,0,2,39942,50000,3574,49948,0,0,0,0,0.00,0.00,0.00,0.00
2017-10-03 04:20:00,2,49169,0,0.00,2,2,0,2,45305,50000,1493,50000,0,0,0,0,0.00,0.00,0.00,0.00
2017-10-03 04:30:00,2,48883,0,0.00,2,2,0,2,45036,50000,1682,50000,0,0,0,0,0.00,0.00,0.00,0.00
2017-10-03 04:40:00,2,50000,0,0.00,2,2,0,2,50000,50000,0,50000,0,0,0,0,0.00,0.00,0.00,0.00
2017-10-03 04:50:00,2,49953,0,0.00,2,2,0,2,49527,50000,142,50000,0,0,0,0,0.00,0.00,0.00,0.00
2017-10-03 05:00:00,2,48124,0,0.00,2,2,0,2,41426,50000,3000,50000,0,0,0,0,0.00,0.00,0.00,0.00
2017-10-03 05:10:00,2,47040,0,0.00,2,2,0,2,40506,50000,2836,47536,0,0,0,0,0.00,0.00,0.00,0.00
2017-10-03 05:20:00,2,48937,0,0.00,2,2,0,2,42236,50000,2298,50000,0,0,0,0,0.00,0.00,0.00,0.00
2017-10-03 05:30:00,2,49981,0,0.00,2,2,0,2,49806,50000,58,50000,0,0,0,0,0.00,0.00,0.00,0.00
2017-10-03 05:40:00,2,50000,0,0.00,2,2,0,2,50000,50000,0,50000,0,0,0,0,0.00,0.00,0.00,0.00
2017-10-03 05:50:00,2,45310,28,0.01,2,2,0,2,23345,50000,8493,50000,0,71,35,0,0.00,0.10,0.03,0.00
2017-10-03 06:00:00,2,48568,60,0.00,2,2,0,2,41420,50000,2933,50000,0,78,30,74,0.00,0.00,0.00,0.00
2017-10-03 06:10:00,2,49712,0,0.00,2,2,0,2,47687,50000,696,50000,0,0,0,0,0.00,0.00,0.00,0.00
2017-10-03 06:20:00,2,48991,0,0.00,2,2,0,2,39913,50000,3026,50000,0,0,0,0,0.00,0.00,0.00,0.00
2017-10-03 06:30:00,2,47760,0,0.00,2,2,0,2,38164,50000,4195,50000,0,0,0,0,0.00,0.00,0.00,0.00
2017-10-03 06:40:00,2,47508,22,0.00,2,2,0,2,38467,50000,4449,50000,0,78,34,0,0.00,0.00,0.00,0.00
2017-10-03 06:50:00,2,49967,0,0.00,2,2,0,2,49670,50000,99,50000,0,0,0,0,0.00,0.00,0.00,0.00
2017-10-03 07:00:00,2,50000,0,0.00,2,2,0,2,50000,50000,0,50000,0,0,0,0,0.00,0.00,0.00,0.00
2017-10-03 07:10:00,2,50000,0,0.00,2,2,0,2,50000,50000,0,50000,0,0,0,0,0.00,0.00,0.00,0.00
2017-10-03 07:20:00,2,49803,0,0.00,2,2,0,2,48034,50000,590,50000,0,0,0,0,0.00,0.00,0.00,0.00
2017-10-03 07:30:00,2,50000,0,0.00,2,2,0,2,50000,50000,0,50000,0,0,0,0,0.00,0.00,0.00,0.00
2017-10-03 07:40:00,2,50000,0,0.00,2,2,0,2,50000,50000,0,50000,0,0,0,0,0.00,0.00,0.00,0.00
2017-10-03 07:50:00,2,50000,0,0.00,2,2,0,2,50000,50000,0,50000,0,0,0,0,0.00,0.00,0.00,0.00
2017-10-03 08:00:00,2,50000,0,0.00,2,2,0,2,50000,50000,0,50000,0,0,0,0,0.00,0.00,0.00,0.00
2017-10-03 08:10:00,2,50000,0,0.00,2,2,0,2,50000,50000,0,50000,0,0,0,0,0.00,0.00,0.00,0.00
2017-10-03 08:20:00,2,50000,0,0.00,2,2,0,2,50000,50000,0,50000,0,0,0,0,0.00,0.00,0.00,0.00
2017-10-03 08:30:00,2,50000,0,0.00,2,2,0,2,50000,50000,0,50000,0,0,0,0,0.00,0.00,0.00,0.00
2017-10-03 08:40:00,2,50000,0,0.00,2,2,0,2,50000,50000,0,50000,0,0,0,0,0.00,0.00,0.00,0.00
2017-10-03 08:50:00,2,50000,0,0.00,2,2,0,2,50000,50000,0,50000,0,0,0,0,0.00,0.00,0.00,0.00
2017-10-03 09:00:00,2,50000,0,0.00,2,2,0,2,50000,50000,0,50000,0,0,0,0,0.00,0.00,0.00,0.00
2017-10-03 09:10:00,2,50000,0,0.00,2,2,0,2,50000,50000,0,50000,0,0,0,0,0.00,0.00,0.00,0.00
2017-10-03 09:20:00,2,50000,0,0.00,2,2,0,2,50000,50000,0,50000,0,0,0,0,0.00,0.00,0.00,0.00
2017-10-03 09:30:00,2,50000,0,0.00,2,2,0,2,50000,50000,0,50000,0,0,0,0,0.00,0.00,0.00,0.00
2017-10-03 09:40:00,2,50000,0,0.00,2,2,0,2,50000,50000,0,50000,0,0,0,0,0.00,0.00,0.00,0.00
2017-10-03 09:50:00,2,50000,0,0.00,2,2,0,2,50000,50000,0,50000,0,0,0,0,0.00,0.00,0.00,0.00
2017-10-03 10:00:00,2,50000,0,0.00,2,2,0,2,50000,50000,0,50000,0,0,0,0,0.00,0.00,0.00,0.00
2017-10-03 10:10:00,2,50000,0,0.00,2,2,0,2,50000,50000,0,50000,0,0,0,0,0.00,0.00,0.00,0.00
2017-10-03 10:20:00,2,50000,0,0.00,2,2,0,2,50000,50000,0,50000,0,0,0,0,0.00,0.00,0.00,0.00
2017-10-03 10:30:00,2,50000,0,0.00,2,2,0,2,50000,50000,0,50000,0,0,0,0,0.00,0.00,0.00,0.00
2017-10-03 10:40:00,2,50000,0,0.00,2,2,0,2,50000,50000,0,50000,0,0,0,0,0.00,0.00,0.00,0.00
2017-10-03 10:50:00,2,50000,0,0.00,2,2,0,2,50000,50000,0,50000,0,0,0,0,0.00,0.00,0.00,0.00
2017-10-03 11:00:00,2,50000,0,0.00,2,2,0,2,50000,50000,0,50000,0,0,0,0,0.00,0.00,0.00,0.00
2017-10-03 11:10:00,2,50000,0,0.00,2,2,0,2,50000,50000,0,50000,0,0,0,0,0.00,0.00,0.00,0.00
2017-10-03 11:20:00,2,50000,0,0.00,2,2,0,2,50000,50000,0,50000,0,0,0,0,0.00,0.00,0.00,0.00
2017-10-03 11:30:00,2,50000,0,0.00,2,2,0,2,50000,50000,0,50000,0,0,0,0,0.00,0.00,0.00,0.00
2017-10-03 11:40:00,2,50000,0,0.00,2,2,0,2,50000,50000,0,50000,0,0,0,0,0.00,0.00,0.00,0.00
2017-10-03 11:50:00,2,50000,0,0.00,2,2,0,2,50000,50000,0,50000,0,0,0,0,0.00,0.00,0.00,0.00
2017-10-03 12:00:00,2,50000,0,0.00,2,2,0,2,50000,50000,0,50000,0,0,0,0,0.00,0.00,0.00,0.00
2017-10-03 12:10:00,2,50000,0,0.00,2,2,0,2,50000,50000,0,50000,0,0,0,0,0.00,0.00,0.00,0.00
2017-10-03 12:20:00,2,50000,0,0.00,2,2,0,2,50000,50000,0,50000,0,0,0,0,0.00,0.00,0.00,0.00
2017-10-03 12:30:00,2,50000,0,0.00,2,2,0,2,50000,50000,0,50000,0,0,0,0,0.00,0.00,0.00,0.00
2017-10-03 12:40:00,2,50000,0,0.00,2,2,0,2,50000,50000,0,50000,0,0,0,0,0.00,0.00,0.00,0.00
2017-10-03 12:50:00,2,50000,0,0.00,2,2,0,2,50000,50000,0,50000,0,0,0,0,0.00,0.00,0.00,0.00
2017-10-03 13:00:00,2,50000,0,0.00,2,2,0,2,50000,50000,0,50000,0,0,0,0,0.00,0.00,0.00,0.00
2017-10-03 13:10:00,2,50000,0,0.00,2,2,0,2,50000,50000,0,50000,0,0,0,0,0.00,0.00,0.00,0.00
2017-10-03 13:20:00,2,50000,0,0.00,2,2,0,2,50000,50000,0,50000,0,0,0,0,0.00,0.00,0.00,0.00
2017-10-03 13:30:00,2,50000,0,0.00,2,2,0,2,50000,50000,0,50000,0,0,0,0,0.00,0.00,0.00,0.00
2017-10-03 13:40:00,2,50000,0,0.00,2,2,0,2,50000,50000,0,50000,0,0,0,0,0.00,0.00,0.00,0.00
2017-10-03 13:50:00,2,50000,0,0.00,2,2,0,2,50000,50000,0,50000,0,0,0,0,0.00,0.00,0.00,0.00
2017-10-03 14:00:00,2,50000,0,0.00,2,2,0,2,50000,50000,0,50000,0,0,0,0,0.00,0.00,0.00,0.00
2017-10-03 14:10:00,2,50000,0,0.00,2,2,0,2,50000,50000,0,50000,0,0,0,0,0.00,0.00,0.00,0.00
2017-10-03 14:20:00,2,50000,0,0.00,2,2,0,2,50000,50000,0,50000,0,0,0,0,0.00,0.00,0.00,0.00
2017-10-03 14:30:00,2,50000,0,0.00,2,2,0,2,50000,50000,0,50000,0,0,0,0,0.00,0.00,0.00,0.00
2017-10-03 14:40:00,2,50000,0,0.00,2,2,0,2,50000,50000,0,50000,0,0,0,0,0.00,0.00,0.00,0.00
2017-10-03 14:50:00,2,50000,0,0.00,2,2,0,2,50000,50000,0,50000,0,0,0,0,0.00,0.00,0.00,0.00
2017-10-03 15:00:00,2,50000,0,0.00,2,2,0,2,50000,50000,0,50000,0,0,0,0,0.00,0.00,0.00,0.00
2017-10-03 15:10:00,2,50000,0,0.00,2,2,0,2,50000,50000,0,50000,0,0,0,0,0.00,0.00,0.00,0.00
2017-10-03 15:20:00,2,50000,0,0.00,2,2,0,2,50000,50000,0,50000,0,0,0,0,0.00,0.00,0.00,0.00
2017-10-03 15:30:00,2,50000,0,0.00,2,2,0,2,50000,50000,0,50000,0,0,0,0,0.00,0.00,0.00,0.00
2017-10-03 15:40:00,2,50000,0,0.00,2,2,0,2,50000,50000,0,50000,0,0,0,0,0.00,0.00,0.00,0.00
2017-10-03 15:50:00,2,50000,0,0.00,2,2,0,2,50000,50000,0,50000,0,0,0,0,0.00,0.00,0.00,0.00
2017-10-03 16:00:00,2,50000,0,0.00,2,2,0,2,50000,50000,0,50000,0,0,0,0,0.00,0.00,0.00,0.00
2017-10-03 16:10:00,2,50000,0,0.00,2,2,0,2,50000,50000,0,50000,0,0,0,0,0.00,0.00,0.00,0.00
2017-10-03 16:20:00,2,50000,0,0.00,2,2,0,2,50000,50000,0,50000,0,0,0,0,0.00,0.00,0.00,0.00
2017-10-03 16:30:00,2,50000,0,0.00,2,2,0,2,50000,50000,0,50000,0,0,0,0,0.00,0.00,0.00,0.00
2017-10-03 16:40:00,2,50000,0,0.00,2,2,0,2,50000,50000,0,50000,0,0,0,0,0.00,0.00,0.00,0.00
2017-10-03 16:50:00,2,50000,0,0.00,2,2,0,2,50000,50000,0,50000,0,0,0,0,0.00,0.00,0.00,0.00
2017-10-03 17:00:00,2,50000,0,0.00,2,2,0,2,50000,50000,0,50000,0,0,0,0,0.00,0.00,0.00,0.00
2017-10-03 17:10:00,2,50000,0,0.00,2,2,0,2,50000,50000,0,50000,0,0,0,0,0.00,0.00,0.00,0.00
2017-10-03 17:20:00,2,50000,0,0.00,2,2,0,2,50000,50000,0,50000,0,0,0,0,0.00,0.00,0.00,0.00
2017-10-03 17:30:00,2,50000,0,0.00,2,2,0,2,50000,50000,0,50000,0,0,0,0,0.00,0.00,0.00,0.00
2017-10-03 17:40:00,2,50000,0,0.00,2,2,0,2,50000,50000,0,50000,0,0,0,0,0.00,0.00,0.00,0.00
2017-10-03 17:50:00,2,50000,0,0.00,2,2,0,2,50000,50000,0,50000,0,0,0,0,0.00,0.00,0.00,0.00
2017-10-03 18:00:00,2,50000,0,0.00,2,2,0,2,50000,50000,0,50000,0,0,0,0,0.00,0.00,0.00,0.00
2017-10-03 18:10:00,2,50000,0,0.00,2,2,0,2,50000,50000,0,50000,0,0,0,0,0.00,0.00,0.00,0.00
2017-10-03 18:20:00,2,50000,0,0.00,2,2,0,2,50000,50000,0,50000,0,0,0,0,0.00,0.00,0.00,0.00
2017-10-03 18:30:00,2,50000,0,0.00,2,2,0,2,50000,50000,0,50000,0,0,0,0,0.00,0.00,0.00,0.00
2017-10-03 18:40:00,2,50000,0,0.00,2,2,0,2,50000,50000,0,50000,0,0,0,0,0.00,0.00,0.00,0.00
2017-10-03 18:50:00,2,50000,0,0.00,2,2,0,2,50000,50000,0,50000,0,0,0,0,0.00,0.00,0.00,0.00
2017-10-03 19:00:00,2,50000,0,0.00,2,2,0,2,50000,50000,0,50000,0,0,0,0,0.00,0.00,0.00,0.00
2017-10-03 19:10:00,2,50000,0,0.00,2,2,0,2,50000,50000,0,50000,0,0,0,0,0.00,0.00,0.00,0.00
2017-10-03 19:20:00,2,50000,0,0.00,2,2,0,2,50000,50000,0,50000,0,0,0,0,0.00,0.00,0.00,0.00
2017-10-03 19:30:00,2,50000,0,0.00,2,2,0,2,50000,50000,0,50000,0,0,0,0,0.00,0.00,0.00,0.00
2017-10-03 19:40:00,2,50000,0,0.00,2,2,0,2,50000,50000,0,50000,0,0,0,0,0.00,0.00,0.00,0.00
2017-10-03 19:50:00,2,50000,0,0.00,2,2,0,2,50000,50000,0,50000,0,0,0,0,0.00,0.00,0.00,0.00
2017-10-03 20:00:00,2,50000,0,0.00,2,2,0,2,50000,50000,0,50000,0,0,0,0,0.00,0.00,0.00,0.00
2017-10-03 20:10:00,2,50000,0,0.00,2,2,0,2,50000,50000,0,50000,0,0,0,0,0.00,0.00,0.00,0.00
2017-10-03 20:20:00,2,50000,0,0.00,2,2,0,2,50000,50000,0,50000,0,0,0,0,0.00,0.00,0.00,0.00
2017-10-03 20:30:00,2,50000,0,0.00,2,2,0,2,50000,50000,0,50000,0,0,0,0,0.00,0.00,0.00,0.00
2017-10-03 20:40:00,2,50000,0,0.00,2,2,0,2,50000,50000,0,50000,0,0,0,0,0.00,0.00,0.00,0.00
2017-10-03 20:50:00,2,50000,0,0.00,2,2,0,2,50000,50000,0,50000,0,0,0,0,0.00,0.00,0.00,0.00
2017-10-03 21:00:00,2,50000,0,0.00,2,2,0,2,50000,50000,0,50000,0,0,0,0,0.00,0.00,0.00,0.00
2017-10-03 21:10:00,2,49895,0,0.00,2,2,0,2,49357,50000,217,50000,0,0,0,0,0.00,0.00,0.00,0.00
2017-10-03 21:20:00,2,34365,45,0.00,2,2,0,2,20872,49993,8698,33928,0,78,37,71,0.00,0.00,0.00,0.00
2017-10-03 21:30:00,2,18468,78,0.01,2,2,0,2,14581,23360,2778,17646,78,78,0,78,0.00,0.05,0.02,0.00
2017-10-03 21:40:00,2,19107,78,0.00,2,2,0,2,13518,23462,3021,19584,78,78,0,78,0.00,0.00,0.00,0.00
2017-10-03 21:50:00,2,25588,78,0.00,2,2,0,2,20538,28739,2565,26174,77,78,0,78,0.00,0.00,0.00,0.00
2017-10-03 22:00:00,2,23175,77,0.00,2,2,0,2,16472,31181,5219,23059,77,78,0,77,0.00,0.00,0.00,0.00
2017-10-03 22:10:00,2,12848,77,0.01,2,2,0,2,9379,19494,3215,11798,77,78,0,77,0.00,0.05,0.02,0.00
2017-10-03 22:20:00,2,10320,77,0.02,2,2,0,2,8334,13479,1956,9544,77,77,0,77,0.00,0.05,0.02,0.00
2017-10-03 22:30:00,2,10716,78,0.01,2,2,0,2,8820,13458,1499,10227,77,78,0,78,0.00,0.05,0.02,0.00
2017-10-03 22:40:00,2,10247,78,0.00,2,2,0,2,9220,11915,971,9704,77,78,0,78,0.00,0.00,0.00,0.00
2017-10-03 22:50:00,2,17336,78,0.00,2,2,0,2,12949,22797,3053,16592,78,78,0,78,0.00,0.00,0.00,0.00
2017-10-03 23:00:00,2,25512,55,0.00,2,2,0,2,14168,35275,6100,26422,0,78,36,78,0.00,0.00,0.00,0.00
2017-10-03 23:10:00,2,18143,38,0.00,2,2,0,2,15510,21439,1856,17871,0,78,38,36,0.00,0.00,0.00,0.00
2017-10-03 23:20:00,2,16642,78,0.00,2,2,0,2,12143,24388,3192,15955,78,78,0,78,0.00,0.00,0.00,0.00
2017-10-03 23:30:00,2,16627,62,0.00,2,2,0,2,13682,21048,2268,16546,0,78,31,78,0.00,0.00,0.00,0.00
2017-10-03 23:40:00,2,15556,0,0.00,2,2,0,2,10255,23211,3881,15189,0,0,0,0,0.00,0.00,0.00,0.00
2017-10-03 23:50:00,2,12008,22,0.00,2,2,0,2,9026,17801,2743,11424,0,77,33,0,0.00,0.00,0.00,0.00
